Вернуться в каталог

DMSP 5D-2 F11 DEB

АктивенPO
NORAD 29069·DEBRIS·🇺🇸 United States

Запущен Nov 28, 1991 с Vandenberg Space Force Base

Loading…

Ближайшие Пролёты (ближайшие 24 часа)

TLE

СвежийSource: Space-Track

Эпоха: Sep 14, 2026, 11:03 UTC

1 29069U 91082BQ  26257.46082383  .00004075  00000-0  11687-2 0  9993
2 29069  98.9082 341.1580 0062514 109.3943 310.8848 14.44365480129668

Отслеживайте DMSP 5D-2 F11 DEB в реальном времени с AllMySat

Download on the App Store